CW0677 Weather Reports


Display with metric or nautical units.
time (UTC)temp
F
wind
direction
speed
MPH
gust
MPH
rain 1hr
in
rain 24hr
in
rain mn
in
humidity
%
barometer
mb
20260508060055 53 221 3.0 9.0 0.00 0.00 0.00 90 1017.9
20260508054623 53 198 4.0 8.0 0.00 0.00 0.00 89 1018.0
20260508053101 53 194 3.0 8.0 0.00 0.00 0.00 88 1017.9
20260508051557 54 167 2.0 8.0 0.00 0.00 0.00 88 1017.9
20260508050058 54 0 1.0 6.0 0.00 0.00 0.00 88 1017.8
20260508044553 54 201 2.0 6.0 0.00 0.00 0.00 88 1017.7
20260508043058 54 223 2.0 9.0 0.00 0.00 0.00 87 1017.6
20260508041554 55 232 2.0 8.0 0.00 0.00 0.00 88 1017.4
20260508034553 55 192 4.0 12.0 0.00 0.00 0.00 87 1017.1
20260508033057 56 170 5.0 11.0 0.00 0.00 0.00 86 1017.0
20260508031604 57 159 4.0 11.0 0.00 0.00 0.00 84 1016.9
20260508030105 58 191 3.0 14.0 0.00 0.00 0.00 83 1016.8
20260508024555 59 165 4.0 10.0 0.00 0.00 0.00 81 1016.6
20260508023053 60 145 3.0 7.0 0.00 0.00 0.00 80 1016.5
20260508021603 61 161 5.0 10.0 0.00 0.00 0.00 80 1016.5
20260508020054 62 150 3.0 12.0 0.00 0.00 0.00 78 1016.5
20260508014557 63 189 4.0 11.0 0.00 0.00 0.00 77 1016.6
20260508013059 63 113 5.0 13.0 0.00 0.00 0.00 77 1016.6
20260508011611 63 190 5.0 13.0 0.00 0.00 0.00 76 1016.8
20260508010103 64 167 4.0 11.0 0.00 0.00 0.00 76 1016.8
20260508004600 64 208 5.0 11.0 0.00 0.00 0.00 75 1016.9
20260508003057 65 168 5.0 11.0 0.00 0.00 0.00 74 1016.9
20260508001600 66 197 4.0 16.0 0.00 0.00 0.00 74 1016.9
20260508000116 65 209 5.0 12.0 0.00 0.00 0.00 74 1016.9
20260507234553 66 175 5.0 13.0 0.00 0.00 0.00 74 1016.8
20260507233056 67 175 3.0 14.0 0.00 0.00 0.00 72 1017.0
20260507231600 67 174 6.0 12.0 0.00 0.00 0.00 72 1017.0
20260507230056 67 140 4.0 14.0 0.00 0.00 0.00 73 1017.0
20260507224553 68 174 5.0 12.0 0.00 0.00 0.00 72 1017.2
20260507223056 69 191 4.0 15.0 0.00 0.00 0.00 72 1017.3
20260507221601 68 173 5.0 10.0 0.00 0.00 0.00 72 1017.4
20260507220055 68 200 4.0 10.0 0.00 0.00 0.00 73 1017.6
20260507214555 67 195 2.0 11.0 0.00 0.00 0.00 74 1017.8
20260507213054 66 209 3.0 11.0 0.00 0.00 0.00 74 1018.1
20260507211601 66 174 3.0 11.0 0.00 0.00 0.00 75 1018.1
20260507210057 65 198 3.0 11.0 0.00 0.00 0.00 76 1018.1
20260507204555 65 150 3.0 10.0 0.00 0.00 0.00 77 1018.3
20260507203054 66 135 3.0 9.0 0.00 0.00 0.00 77 1018.4
20260507201600 65 245 3.0 11.0 0.00 0.00 0.00 78 1018.5
20260507200055 64 252 2.0 10.0 0.00 0.00 0.00 79 1018.6
20260507194553 63 153 3.0 10.0 0.00 0.00 0.00 79 1018.7
20260507193059 63 245 1.0 9.0 0.00 0.00 0.00 80 1018.9
20260507191554 60 285 2.0 6.0 0.00 0.00 0.00 81 1019.3
20260507190057 60 285 1.0 6.0 0.00 0.00 0.00 81 1019.6
20260507184555 59 177 0.0 6.0 0.00 0.00 0.00 82 1019.6
20260507183055 59 190 2.0 6.0 0.00 0.00 0.00 83 1019.7
20260507181556 57 0 1.0 7.0 0.00 0.00 0.00 85 1019.7
20260507174627 57 12 1.0 4.0 0.00 0.00 0.00 86 1019.8
20260507173100 56 0 1.0 4.0 0.00 0.00 0.00 86 1019.8
20260507171611 56 70 1.0 4.0 0.00 0.00 0.00 88 1019.7
20260507170057 55 131 1.0 4.0 0.00 0.00 0.00 88 1019.9
20260507164601 55 0 0.0 2.0 0.00 0.00 0.00 90 1019.8
20260507163053 54 318 2.0 4.0 0.00 0.00 0.00 90 1019.8
20260507161559 54 148 2.0 4.0 0.00 0.00 0.00 90 1019.7
20260507160115 54 242 0.0 3.0 0.00 0.00 0.00 91 1019.6
20260507154558 53 195 1.0 4.0 0.00 0.00 0.00 92 1019.6
20260507153056 53 224 1.0 4.0 0.00 0.00 0.00 92 1019.6
20260507151600 53 0 0.0 3.0 0.00 0.00 0.00 92 1019.7
20260507150058 52 232 1.0 4.0 0.00 0.00 0.00 92 1019.7
20260507144556 52 202 1.0 4.0 0.00 0.00 0.00 93 1019.7
20260507143111 52 186 0.0 4.0 0.00 0.00 0.00 92 1019.6
20260507141633 52 0 0.0 4.0 0.00 0.00 0.00 93 1019.5
20260507140112 52 149 1.0 6.0 0.00 0.00 0.00 92 1019.3
20260507134607 52 98 0.0 4.0 0.00 0.00 0.00 92 1019.0
20260507133100 52 126 1.0 3.0 0.00 0.00 0.00 92 1018.8
20260507131616 52 171 1.0 4.0 0.00 0.00 0.00 92 1018.6
20260507124601 52 214 0.0 5.0 0.00 0.00 0.00 92 1018.5
20260507123103 52 0 0.0 3.0 0.00 0.00 0.00 92 1018.5
20260507121601 52 159 1.0 4.0 0.00 0.00 0.00 92 1018.5
20260507120056 53 161 0.0 4.0 0.00 0.00 0.00 92 1018.5
20260507114556 53 232 0.0 4.0 0.00 0.00 0.00 91 1018.6
20260507113125 53 178 0.0 4.0 0.00 0.00 0.00 91 1018.7
20260507111555 53 130 1.0 3.0 0.00 0.00 0.00 91 1018.8
20260507110057 53 180 0.0 5.0 0.00 0.00 0.00 91 1018.8
20260507104605 53 138 2.0 6.0 0.00 0.00 0.00 91 1018.8
20260507103055 53 0 1.0 5.0 0.00 0.00 0.00 90 1018.9
20260507101558 53 153 1.0 4.0 0.00 0.00 0.00 90 1019.0
20260507100058 53 140 1.0 5.0 0.00 0.00 0.00 90 1018.9
20260507094605 53 211 2.0 4.0 0.00 0.00 0.00 90 1019.0
20260507093054 53 201 1.0 5.0 0.00 0.00 0.00 90 1019.1
20260507091557 53 175 1.0 7.0 0.00 0.00 0.00 90 1019.3
20260507090056 54 203 2.0 6.0 0.00 0.00 0.00 89 1019.3
20260507084559 54 237 2.0 6.0 0.00 0.00 0.00 89 1019.4
20260507083054 54 225 3.0 7.0 0.00 0.00 0.00 89 1019.3
20260507081552 54 199 1.0 7.0 0.00 0.00 0.00 89 1019.2
20260507080058 54 169 2.0 6.0 0.00 0.00 0.00 89 1019.3
20260507074558 54 207 1.0 7.0 0.00 0.00 0.00 88 1019.3
20260507073059 54 206 1.0 5.0 0.00 0.00 0.00 89 1019.3
20260507071557 54 233 3.0 8.0 0.00 0.00 0.00 88 1019.3
20260507070107 54 140 2.0 8.0 0.00 0.00 0.00 88 1019.1
20260507064605 54 210 2.0 6.0 0.00 0.00 0.00 88 1018.9
20260507063105 54 150 2.0 9.0 0.00 0.00 0.00 88 1018.9
20260507061556 54 162 2.0 9.0 0.00 0.00 0.00 88 1019.0